sat.trackr.live / text

‹ back to catalog

STARLINK-33955

NORAD 63902 · 2025-095N

PAYLOAD ACTIVE UNKNOWN

§ Identity

Operator
Country
US
Launch date
2025-05-10
Launch site
AFETR
Launch vehicle
Mass (kg)
RCS (m²)

Purposes: comms

External: N2YO · Heavens-Above · Gunter

§ Orbital elements

Epoch: 2026-09-19T23:05:37.349376Z

Period
94.27 min
Inclination
43.0011°
Eccentricity
0.0000590
Mean motion
15.27595267 rev/d
Perigee alt
482.6 km
Apogee alt
483.4 km
Semi-major
6,861.1 km
B*
5.6068e-4
RAAN
158.6919°
Arg perigee
276.9776°
Mean anomaly
83.1009°
Rev number
7,749

§ Raw data

STARLINK-339551 63902U 25095N   26262.96223784  .00015206  00000+0  56068-3 0  99912 63902  43.0011 158.6919 0000590 276.9776  83.1009 15.27595267 77495

JSON: /api/v1/satellites/63902 · /tle

For live sub-satellite position, see the globe view (requires WebGL).

§ Visibility from observer

Set your observer location to see the next 7 days of passes ≥ 10°. The values pass through the URL so the page stays shareable.

No JS? Fill the form by hand. The geolocation button needs JavaScript.